STARLINK-3504, 51881

Orbit data source: Space-Track

STARLINK-3504, 51881 is a payload satellite owned by SpaceX/Seattle (US) in LEO that was launched on Thu, 03 Mar 2022 UTC via an FALCON 9 launch vehicle from the Air Force Eastern Test Range (AFETR). Payload-class satellites include a variety of spacecraft equipped with specific instruments for various scientific and technological missions. These include communications satellites like Starlink; space stations such as the ISS; scientific satellites like the Hubble; Earth observation satellites from companies like Planet Labs, Umbra, and HawkEye 360; GPS; miniature CubeSats for education and research; and military/defense satellites.

Loading next visibility...
Identifier
51881, 2022-022AF
Orbit
LEO
Country
Flag of USUS
Related business
Manufacturer
SpaceX/Seattle
Mission
Operational Commercial Communications
Bus & Motor
STARLINK, Unknown motor
Mass
297 kg wet, ~275 kg dry
Launch date (UTC)
2022-03-03 (4 years ago)
Launch vehicle
FALCON 9
Launch site
Air Force Eastern Test Range (AFETR)
Object type
Payload
Rocket body
Debris
Shape & HBR
Box + 1 Pan, 10.1 m
Radar Cross Section
13.562 m², Large (>1 m²)

Expand to show TLE details & history
Last TLE update: 2 days ago

TLE from 2 days ago
0 STARLINK-3504
1 51881U 22022AF  26171.44568089  .00001065  00000-0  84984-4 0  9991
2 51881  53.1615 257.7162 0001086  85.0890 275.0226 15.08846552238811
Epoch: 2026-06-20T10:41Z
TLE epoch observation values (Epoch: 2026-06-20T10:41:46.828Z)
Latitude
Longitude
-171.38911°
Altitude
540.549 km
Speed
7.593 km/s
True Right ascension
17h 10m 51s
True Declination
0° 00' 00"
Sunlit
Object was in full shadow at epoch
Visualization orbit readout
Latitude
Unknown
Longitude
Unknown
Altitude
Unknown
Speed
Unknown
Apparent Right ascension
Unknown
Apparent Declination
Unknown
Sunlit
N/A
Visualization observer readout
Local Sidereal Time
21:30:12
Azimuth
Unknown
Elevation
Unknown
Doppler factor
Unknown
Orbital elements
Apogee altitude
540.729 km
Perigee altitude
539.226 km
Semi-major axis
6,918.114 km
Eccentricity
0.00011
Inclination
53.1615°
RAAN
257.7162°
Arg. of periapsis
85.089°
True anomaly
275.0102°
Mean anomaly
275.0226°
Eccentric anomaly
275.0164°
Mean motion
3.77191 °/min
Orbital period
95.44 mins
BSTAR
0.000084984
Loading maneuver chart data...
Computing Atmospheric mass density...
Loading historical data...
Loading historical data...
Loading historical data...
Loading historical data...
Loading historical data...
Loading historical data...
Loading historical data...

Documentation

Showing up to 5 results
|